Year,Month,Day,Hour,Minute,Value (Times are PST for temperature in C)
2018,07,14,00,00,14.00
2018,07,14,00,01,14.00
2018,07,14,00,02,14.00
2018,07,14,00,03,14.00
2018,07,14,00,04,14.00
2018,07,14,00,05,14.00
2018,07,14,00,06,14.00
2018,07,14,00,07,14.00
2018,07,14,00,08,14.00
2018,07,14,00,09,14.00
2018,07,14,00,10,14.00
2018,07,14,00,11,14.10
2018,07,14,00,12,14.10
2018,07,14,00,13,14.10
2018,07,14,00,14,14.10
2018,07,14,00,15,14.20
2018,07,14,00,16,14.20
2018,07,14,00,17,14.20
2018,07,14,00,18,14.20
2018,07,14,00,19,14.20
2018,07,14,00,20,14.30
2018,07,14,00,21,14.30
2018,07,14,00,22,14.40
2018,07,14,00,23,14.40
2018,07,14,00,24,14.40
2018,07,14,00,25,14.40
2018,07,14,00,26,14.40
2018,07,14,00,27,14.40
2018,07,14,00,28,14.40
2018,07,14,00,29,14.40
2018,07,14,00,30,14.40
2018,07,14,00,31,14.40
2018,07,14,00,32,14.40
2018,07,14,00,33,14.40
2018,07,14,00,34,14.40
2018,07,14,00,35,14.40
2018,07,14,00,36,14.40
2018,07,14,00,37,14.40
2018,07,14,00,38,14.40
2018,07,14,00,39,14.40
2018,07,14,00,40,14.30
2018,07,14,00,41,14.30
2018,07,14,00,42,14.30
2018,07,14,00,43,14.30
2018,07,14,00,44,14.30
2018,07,14,00,45,14.20
2018,07,14,00,46,14.20
2018,07,14,00,47,14.20
2018,07,14,00,48,14.20
2018,07,14,00,49,14.20
2018,07,14,00,50,14.20
2018,07,14,00,51,14.20
2018,07,14,00,52,14.20
2018,07,14,00,53,14.20
2018,07,14,00,54,14.20
2018,07,14,00,55,14.20
2018,07,14,00,56,14.20
2018,07,14,00,57,14.20
2018,07,14,00,58,14.20
2018,07,14,00,59,14.20
2018,07,14,01,00,14.10
2018,07,14,01,01,14.10
2018,07,14,01,02,14.10
2018,07,14,01,03,14.10
2018,07,14,01,04,14.10
2018,07,14,01,05,14.10
2018,07,14,01,06,14.00
2018,07,14,01,07,14.00
2018,07,14,01,08,14.00
2018,07,14,01,09,14.00
2018,07,14,01,10,14.00
2018,07,14,01,11,13.90
2018,07,14,01,12,13.90
2018,07,14,01,13,13.90
2018,07,14,01,14,13.90
2018,07,14,01,15,13.90
2018,07,14,01,16,13.90
2018,07,14,01,17,13.90
2018,07,14,01,18,13.90
2018,07,14,01,19,13.80
2018,07,14,01,20,13.80
2018,07,14,01,21,13.80
2018,07,14,01,22,13.80
2018,07,14,01,23,13.80
2018,07,14,01,24,13.90
2018,07,14,01,25,13.90
2018,07,14,01,26,13.90
2018,07,14,01,27,14.00
2018,07,14,01,28,14.00
2018,07,14,01,29,14.10
2018,07,14,01,30,14.20
2018,07,14,01,31,14.20
2018,07,14,01,32,14.20
2018,07,14,01,33,14.20
2018,07,14,01,34,14.30
2018,07,14,01,35,14.30
2018,07,14,01,36,14.40
2018,07,14,01,37,14.40
2018,07,14,01,38,14.40
2018,07,14,01,39,14.50
2018,07,14,01,40,14.50
2018,07,14,01,41,14.50
2018,07,14,01,42,14.60
2018,07,14,01,43,14.60
2018,07,14,01,44,14.70
2018,07,14,01,45,14.80
2018,07,14,01,46,14.80
2018,07,14,01,47,14.90
2018,07,14,01,48,14.90
2018,07,14,01,49,14.90
2018,07,14,01,50,15.00
2018,07,14,01,51,15.00
2018,07,14,01,52,15.10
2018,07,14,01,53,15.10
2018,07,14,01,54,15.10
2018,07,14,01,55,15.20
2018,07,14,01,56,15.20
2018,07,14,01,57,15.20
2018,07,14,01,58,15.20
2018,07,14,01,59,15.20
2018,07,14,02,00,15.30
2018,07,14,02,01,15.30
2018,07,14,02,02,15.30
2018,07,14,02,03,15.30
2018,07,14,02,04,15.30
2018,07,14,02,05,15.30
2018,07,14,02,06,15.30
2018,07,14,02,07,15.30
2018,07,14,02,08,15.30
2018,07,14,02,09,15.30
2018,07,14,02,10,15.30
2018,07,14,02,11,15.40
2018,07,14,02,12,15.40
2018,07,14,02,13,15.40
2018,07,14,02,14,15.40
2018,07,14,02,15,15.40
2018,07,14,02,16,15.40
2018,07,14,02,17,15.40
2018,07,14,02,18,15.40
2018,07,14,02,19,15.40
2018,07,14,02,20,15.40
2018,07,14,02,21,15.40
2018,07,14,02,22,15.40
2018,07,14,02,23,15.30
2018,07,14,02,24,15.30
2018,07,14,02,25,15.30
2018,07,14,02,26,15.30
2018,07,14,02,27,15.30
2018,07,14,02,28,15.40
2018,07,14,02,29,15.40
2018,07,14,02,30,15.40
2018,07,14,02,31,15.40
2018,07,14,02,32,15.40
2018,07,14,02,33,15.40
2018,07,14,02,34,15.40
2018,07,14,02,35,15.50
2018,07,14,02,36,15.50
2018,07,14,02,37,15.50
2018,07,14,02,38,15.50
2018,07,14,02,39,15.50
2018,07,14,02,40,15.50
2018,07,14,02,41,15.50
2018,07,14,02,42,15.50
2018,07,14,02,43,15.50
2018,07,14,02,44,15.60
2018,07,14,02,45,15.60
2018,07,14,02,46,15.60
2018,07,14,02,47,15.60
2018,07,14,02,48,15.60
2018,07,14,02,49,15.70
2018,07,14,02,50,15.70
2018,07,14,02,51,15.70
2018,07,14,02,52,15.70
2018,07,14,02,53,15.70
2018,07,14,02,54,15.70
2018,07,14,02,55,15.70
2018,07,14,02,56,15.80
2018,07,14,02,57,15.80
2018,07,14,02,58,15.80
2018,07,14,02,59,15.80
2018,07,14,03,00,15.80
2018,07,14,03,01,15.80
2018,07,14,03,02,15.80
2018,07,14,03,03,15.80
2018,07,14,03,04,15.80
2018,07,14,03,05,15.80
2018,07,14,03,06,15.80
2018,07,14,03,07,15.80
2018,07,14,03,08,15.80
2018,07,14,03,09,15.80
2018,07,14,03,10,15.80
2018,07,14,03,11,15.80
2018,07,14,03,12,15.80
2018,07,14,03,13,15.80
2018,07,14,03,14,15.80
2018,07,14,03,15,15.80
2018,07,14,03,16,15.70
2018,07,14,03,17,15.60
2018,07,14,03,18,15.60
2018,07,14,03,19,15.50
2018,07,14,03,20,15.50
2018,07,14,03,21,15.40
2018,07,14,03,22,15.30
2018,07,14,03,23,15.30
2018,07,14,03,24,15.20
2018,07,14,03,25,15.10
2018,07,14,03,26,15.10
2018,07,14,03,27,15.00
2018,07,14,03,28,14.90
2018,07,14,03,29,14.90
2018,07,14,03,30,14.80
2018,07,14,03,31,14.80
2018,07,14,03,32,14.70
2018,07,14,03,33,14.70
2018,07,14,03,34,14.60
2018,07,14,03,35,14.60
2018,07,14,03,36,14.50
2018,07,14,03,37,14.50
2018,07,14,03,38,14.50
2018,07,14,03,39,14.50
2018,07,14,03,40,14.40
2018,07,14,03,41,14.40
2018,07,14,03,42,14.40
2018,07,14,03,43,14.40
2018,07,14,03,44,14.40
2018,07,14,03,45,14.40
2018,07,14,03,46,14.40
2018,07,14,03,47,14.30
2018,07,14,03,48,14.30
2018,07,14,03,49,14.30
2018,07,14,03,50,14.30
2018,07,14,03,51,14.20
2018,07,14,03,52,14.20
2018,07,14,03,53,14.20
2018,07,14,03,54,14.20
2018,07,14,03,55,14.20
2018,07,14,03,56,14.20
2018,07,14,03,57,14.20
2018,07,14,03,58,14.20
2018,07,14,03,59,14.20
2018,07,14,04,00,14.20
2018,07,14,04,01,14.20
2018,07,14,04,02,14.20
2018,07,14,04,03,14.20
2018,07,14,04,04,14.10
2018,07,14,04,05,14.10
2018,07,14,04,06,14.10
2018,07,14,04,07,14.10
2018,07,14,04,08,14.10
2018,07,14,04,09,14.10
2018,07,14,04,10,14.00
2018,07,14,04,11,14.00
2018,07,14,04,12,14.00
2018,07,14,04,13,14.10
2018,07,14,04,14,14.10
2018,07,14,04,15,14.10
2018,07,14,04,16,14.10
2018,07,14,04,17,14.20
2018,07,14,04,18,14.20
2018,07,14,04,19,14.20
2018,07,14,04,20,14.20
2018,07,14,04,21,14.20
2018,07,14,04,22,14.20
2018,07,14,04,23,14.20
2018,07,14,04,24,14.20
2018,07,14,04,25,14.20
2018,07,14,04,26,14.20
2018,07,14,04,27,14.20
2018,07,14,04,28,14.20
2018,07,14,04,29,14.20
2018,07,14,04,30,14.20
2018,07,14,04,31,14.20
2018,07,14,04,32,14.20
2018,07,14,04,33,14.20
2018,07,14,04,34,14.20
2018,07,14,04,35,14.20
2018,07,14,04,36,14.20
2018,07,14,04,37,14.20
2018,07,14,04,38,14.20
2018,07,14,04,39,14.20
2018,07,14,04,40,14.20
2018,07,14,04,41,14.20
2018,07,14,04,42,14.20
2018,07,14,04,43,14.20
2018,07,14,04,44,14.20
2018,07,14,04,45,14.20
2018,07,14,04,46,14.20
2018,07,14,04,47,14.20
2018,07,14,04,48,14.20
2018,07,14,04,49,14.20
2018,07,14,04,50,14.20
2018,07,14,04,51,14.20
2018,07,14,04,52,14.20
2018,07,14,04,53,14.20
2018,07,14,04,54,14.20
2018,07,14,04,55,14.20
2018,07,14,04,56,14.20
2018,07,14,04,57,14.20
2018,07,14,04,58,14.20
2018,07,14,04,59,14.20
2018,07,14,05,00,14.20
2018,07,14,05,01,14.20
2018,07,14,05,02,14.20
2018,07,14,05,03,14.20
2018,07,14,05,04,14.20
2018,07,14,05,05,14.20
2018,07,14,05,06,14.30
2018,07,14,05,07,14.30
2018,07,14,05,08,14.30
2018,07,14,05,09,14.30
2018,07,14,05,10,14.20
2018,07,14,05,11,14.20
2018,07,14,05,12,14.20
2018,07,14,05,13,14.20
2018,07,14,05,14,14.20
2018,07,14,05,15,14.20
2018,07,14,05,16,14.20
2018,07,14,05,17,14.20
2018,07,14,05,18,14.20
2018,07,14,05,19,14.20
2018,07,14,05,20,14.20
2018,07,14,05,21,14.20
2018,07,14,05,22,14.20
2018,07,14,05,23,14.20
2018,07,14,05,24,14.20
2018,07,14,05,25,14.20
2018,07,14,05,26,14.20
2018,07,14,05,27,14.20
2018,07,14,05,28,14.20
2018,07,14,05,29,14.20
2018,07,14,05,30,14.20
2018,07,14,05,31,14.20
2018,07,14,05,32,14.20
2018,07,14,05,33,14.20
2018,07,14,05,34,14.20
2018,07,14,05,35,14.20
2018,07,14,05,36,14.20
2018,07,14,05,37,14.30
2018,07,14,05,38,14.30
2018,07,14,05,39,14.30
2018,07,14,05,40,14.30
2018,07,14,05,41,14.30
2018,07,14,05,42,14.30
2018,07,14,05,43,14.20
2018,07,14,05,44,14.30
2018,07,14,05,45,14.30
2018,07,14,05,46,14.30
2018,07,14,05,47,14.30
2018,07,14,05,48,14.30
2018,07,14,05,49,14.40
2018,07,14,05,50,14.40
2018,07,14,05,51,14.40
2018,07,14,05,52,14.40
2018,07,14,05,53,14.40
2018,07,14,05,54,14.40
2018,07,14,05,55,14.40
2018,07,14,05,56,14.30
2018,07,14,05,57,14.40
2018,07,14,05,58,14.40
2018,07,14,05,59,14.40
2018,07,14,06,00,14.50
2018,07,14,06,01,14.50
2018,07,14,06,02,14.50
2018,07,14,06,03,14.60
2018,07,14,06,04,14.60
2018,07,14,06,05,14.60
2018,07,14,06,06,14.60
2018,07,14,06,07,14.60
2018,07,14,06,08,14.60
2018,07,14,06,09,14.60
2018,07,14,06,10,14.60
2018,07,14,06,11,14.60
2018,07,14,06,12,14.60
2018,07,14,06,13,14.60
2018,07,14,06,14,14.60
2018,07,14,06,15,14.60
2018,07,14,06,16,14.60
2018,07,14,06,17,14.60
2018,07,14,06,18,14.50
2018,07,14,06,19,14.50
2018,07,14,06,20,14.50
2018,07,14,06,21,14.40
2018,07,14,06,22,14.30
2018,07,14,06,23,14.30
2018,07,14,06,24,14.30
2018,07,14,06,25,14.30
2018,07,14,06,26,14.30
2018,07,14,06,27,14.40
2018,07,14,06,28,14.40
2018,07,14,06,29,14.40
2018,07,14,06,30,14.40
2018,07,14,06,31,14.40
2018,07,14,06,32,14.50
2018,07,14,06,33,14.50
2018,07,14,06,34,14.50
2018,07,14,06,35,14.50
2018,07,14,06,36,14.50
2018,07,14,06,37,14.40
2018,07,14,06,38,14.40
2018,07,14,06,39,14.40
2018,07,14,06,40,14.30
2018,07,14,06,41,14.30
2018,07,14,06,42,14.20
2018,07,14,06,43,14.20
2018,07,14,06,44,14.20
2018,07,14,06,45,14.20
2018,07,14,06,46,14.20
2018,07,14,06,47,14.20
2018,07,14,06,48,14.20
2018,07,14,06,49,14.20
2018,07,14,06,50,14.20
2018,07,14,06,51,14.20
2018,07,14,06,52,14.20
2018,07,14,06,53,14.20
2018,07,14,06,54,14.20
2018,07,14,06,55,14.20
2018,07,14,06,56,14.20
2018,07,14,06,57,14.20
2018,07,14,06,58,14.30
2018,07,14,06,59,14.30
2018,07,14,07,00,14.30
2018,07,14,07,01,14.40
2018,07,14,07,02,14.40
2018,07,14,07,03,14.40
2018,07,14,07,04,14.40
2018,07,14,07,05,14.40
2018,07,14,07,06,14.30
2018,07,14,07,07,14.30
2018,07,14,07,08,14.30
2018,07,14,07,09,14.40
2018,07,14,07,10,14.40
2018,07,14,07,11,14.50
2018,07,14,07,12,14.50
2018,07,14,07,13,14.50
2018,07,14,07,14,14.60
2018,07,14,07,15,14.60
2018,07,14,07,16,14.60
2018,07,14,07,17,14.60
2018,07,14,07,18,14.60
2018,07,14,07,19,14.60
2018,07,14,07,20,14.60
2018,07,14,07,21,14.50
2018,07,14,07,22,14.50
2018,07,14,07,23,14.50
2018,07,14,07,24,14.50
2018,07,14,07,25,14.40
2018,07,14,07,26,14.40
2018,07,14,07,27,14.40
2018,07,14,07,28,14.40
2018,07,14,07,29,14.40
2018,07,14,07,30,14.40
2018,07,14,07,31,14.40
2018,07,14,07,32,14.40
2018,07,14,07,33,14.40
2018,07,14,07,34,14.30
2018,07,14,07,35,14.40
2018,07,14,07,36,14.50
2018,07,14,07,37,14.50
2018,07,14,07,38,14.50
2018,07,14,07,39,14.50
2018,07,14,07,40,14.50
2018,07,14,07,41,14.40
2018,07,14,07,42,14.50
2018,07,14,07,43,14.60
2018,07,14,07,44,14.60
2018,07,14,07,45,14.70
2018,07,14,07,46,14.80
2018,07,14,07,47,14.80
2018,07,14,07,48,14.80
2018,07,14,07,49,14.90
2018,07,14,07,50,15.00
2018,07,14,07,51,15.00
2018,07,14,07,52,15.00
2018,07,14,07,53,14.90
2018,07,14,07,54,15.00
2018,07,14,07,55,15.00
2018,07,14,07,56,15.00
2018,07,14,07,57,15.10
2018,07,14,07,58,15.10
2018,07,14,07,59,15.20
2018,07,14,08,00,15.20
2018,07,14,08,01,15.20
2018,07,14,08,02,15.30
2018,07,14,08,03,15.30
2018,07,14,08,04,15.30
2018,07,14,08,05,15.30
2018,07,14,08,06,15.30
2018,07,14,08,07,15.40
2018,07,14,08,08,15.50
2018,07,14,08,09,15.50
2018,07,14,08,10,15.50
2018,07,14,08,11,15.50
2018,07,14,08,12,15.50
2018,07,14,08,13,15.50
2018,07,14,08,14,15.60
2018,07,14,08,15,15.70
2018,07,14,08,16,15.70
2018,07,14,08,17,15.70
2018,07,14,08,18,15.70
2018,07,14,08,19,15.70
2018,07,14,08,20,15.70
2018,07,14,08,21,15.70
2018,07,14,08,22,15.70
2018,07,14,08,23,15.70
2018,07,14,08,24,15.70
2018,07,14,08,25,15.70
2018,07,14,08,26,15.70
2018,07,14,08,27,15.80
2018,07,14,08,28,15.80
2018,07,14,08,29,15.80
2018,07,14,08,30,15.80
2018,07,14,08,31,15.70
2018,07,14,08,32,15.60
2018,07,14,08,33,15.60
2018,07,14,08,34,15.60
2018,07,14,08,35,15.70
2018,07,14,08,36,15.80
2018,07,14,08,37,15.80
2018,07,14,08,38,15.80
2018,07,14,08,39,15.80
2018,07,14,08,40,15.80
2018,07,14,08,41,15.80
2018,07,14,08,42,15.80
2018,07,14,08,43,15.80
2018,07,14,08,44,15.80
2018,07,14,08,45,15.80
2018,07,14,08,46,15.90
2018,07,14,08,47,16.10
2018,07,14,08,48,16.20
2018,07,14,08,49,16.20
2018,07,14,08,50,16.20
2018,07,14,08,51,16.30
2018,07,14,08,52,16.30
2018,07,14,08,53,16.40
2018,07,14,08,54,16.40
2018,07,14,08,55,16.40
2018,07,14,08,56,16.40
2018,07,14,08,57,16.50
2018,07,14,08,58,16.50
2018,07,14,08,59,16.50
2018,07,14,09,00,16.60
2018,07,14,09,01,16.70
2018,07,14,09,02,16.80
2018,07,14,09,03,16.90
2018,07,14,09,04,16.90
2018,07,14,09,05,16.80
2018,07,14,09,06,16.70
2018,07,14,09,07,16.70
2018,07,14,09,08,16.70
2018,07,14,09,09,16.70
2018,07,14,09,10,16.70
2018,07,14,09,11,16.80
2018,07,14,09,12,16.90
2018,07,14,09,13,16.90
2018,07,14,09,14,16.90
2018,07,14,09,15,17.00
2018,07,14,09,16,17.00
2018,07,14,09,17,17.10
2018,07,14,09,18,17.20
2018,07,14,09,19,17.20
2018,07,14,09,20,17.20
2018,07,14,09,21,17.20
2018,07,14,09,22,17.10
2018,07,14,09,23,17.00
2018,07,14,09,24,17.00
2018,07,14,09,25,17.00
2018,07,14,09,26,17.00
2018,07,14,09,27,17.00
2018,07,14,09,28,17.00
2018,07,14,09,29,17.20
2018,07,14,09,30,17.20
2018,07,14,09,31,17.20
2018,07,14,09,32,17.30
2018,07,14,09,33,17.30
2018,07,14,09,34,17.30
2018,07,14,09,35,17.30
2018,07,14,09,36,17.30
2018,07,14,09,37,17.30
2018,07,14,09,38,17.50
2018,07,14,09,39,17.60
2018,07,14,09,40,17.80
2018,07,14,09,41,17.90
2018,07,14,09,42,17.90
2018,07,14,09,43,17.90
2018,07,14,09,44,17.90
2018,07,14,09,45,17.90
2018,07,14,09,46,17.90
2018,07,14,09,47,18.00
2018,07,14,09,48,18.10
2018,07,14,09,49,18.10
2018,07,14,09,50,18.20
2018,07,14,09,51,18.30
2018,07,14,09,52,18.30
2018,07,14,09,53,18.40
2018,07,14,09,54,18.50
2018,07,14,09,55,18.50
2018,07,14,09,56,18.60
2018,07,14,09,57,18.70
2018,07,14,09,58,18.90
2018,07,14,09,59,19.00
2018,07,14,10,00,19.10
2018,07,14,10,01,19.10
2018,07,14,10,02,19.10
2018,07,14,10,03,19.10
2018,07,14,10,04,19.10
2018,07,14,10,05,19.10
2018,07,14,10,06,19.10
2018,07,14,10,07,19.20
2018,07,14,10,08,19.30
2018,07,14,10,09,19.40
2018,07,14,10,10,19.50
2018,07,14,10,11,19.60
2018,07,14,10,12,19.90
2018,07,14,10,13,20.00
2018,07,14,10,14,20.10
2018,07,14,10,15,20.20
2018,07,14,10,16,20.20
2018,07,14,10,17,20.30
2018,07,14,10,18,20.30
2018,07,14,10,19,20.30
2018,07,14,10,20,20.10
2018,07,14,10,21,20.00
2018,07,14,10,22,19.90
2018,07,14,10,23,20.00
2018,07,14,10,24,20.00
2018,07,14,10,25,19.90
2018,07,14,10,26,19.90
2018,07,14,10,27,19.70
2018,07,14,10,28,19.40
2018,07,14,10,29,19.30
2018,07,14,10,30,19.10
2018,07,14,10,31,19.10
2018,07,14,10,32,19.10
2018,07,14,10,33,19.10
2018,07,14,10,34,19.10
2018,07,14,10,35,19.10
2018,07,14,10,36,19.10
2018,07,14,10,37,19.10
2018,07,14,10,38,19.10
2018,07,14,10,39,19.10
2018,07,14,10,40,19.00
2018,07,14,10,41,18.90
2018,07,14,10,42,18.90
2018,07,14,10,43,19.10
2018,07,14,10,44,19.10
2018,07,14,10,45,19.20
2018,07,14,10,46,19.30
2018,07,14,10,47,19.30
2018,07,14,10,48,19.40
2018,07,14,10,49,19.50
2018,07,14,10,50,19.60
2018,07,14,10,51,19.70
2018,07,14,10,52,19.90
2018,07,14,10,53,19.90
2018,07,14,10,54,20.00
2018,07,14,10,55,20.00
2018,07,14,10,56,19.90
2018,07,14,10,57,19.90
2018,07,14,10,58,19.90
2018,07,14,10,59,19.80
2018,07,14,11,00,19.90
2018,07,14,11,01,19.90
2018,07,14,11,02,19.80
2018,07,14,11,03,19.70
2018,07,14,11,04,19.60
2018,07,14,11,05,19.60
2018,07,14,11,06,19.50
2018,07,14,11,07,19.50
2018,07,14,11,08,19.50
2018,07,14,11,09,19.30
2018,07,14,11,10,19.30
2018,07,14,11,11,19.30
2018,07,14,11,12,19.30
2018,07,14,11,13,19.40
2018,07,14,11,14,19.50
2018,07,14,11,15,19.60
2018,07,14,11,16,19.60
2018,07,14,11,17,19.60
2018,07,14,11,18,19.60
2018,07,14,11,19,19.60
2018,07,14,11,20,19.70
2018,07,14,11,21,19.90
2018,07,14,11,22,19.90
2018,07,14,11,23,19.80
2018,07,14,11,24,19.80
2018,07,14,11,25,19.80
2018,07,14,11,26,19.80
2018,07,14,11,27,19.70
2018,07,14,11,28,19.60
2018,07,14,11,29,19.50
2018,07,14,11,30,19.50
2018,07,14,11,31,19.40
2018,07,14,11,32,19.40
2018,07,14,11,33,19.50
2018,07,14,11,34,19.60
2018,07,14,11,35,19.70
2018,07,14,11,36,19.80
2018,07,14,11,37,19.80
2018,07,14,11,38,19.90
2018,07,14,11,39,20.10
2018,07,14,11,40,20.20
2018,07,14,11,41,20.30
2018,07,14,11,42,20.40
2018,07,14,11,43,20.40
2018,07,14,11,44,20.40
2018,07,14,11,45,20.40
2018,07,14,11,46,20.50
2018,07,14,11,47,20.40
2018,07,14,11,48,20.40
2018,07,14,11,49,20.30
2018,07,14,11,50,20.30
2018,07,14,11,51,20.40
2018,07,14,11,52,20.40
2018,07,14,11,53,20.40
2018,07,14,11,54,20.50
2018,07,14,11,55,20.70
2018,07,14,11,56,20.70
2018,07,14,11,57,20.70
2018,07,14,11,58,20.70
2018,07,14,11,59,20.80
2018,07,14,12,00,20.90
2018,07,14,12,01,20.90
2018,07,14,12,02,20.90
2018,07,14,12,03,20.90
2018,07,14,12,04,21.00
2018,07,14,12,05,21.00
2018,07,14,12,06,20.80
2018,07,14,12,07,20.70
2018,07,14,12,08,20.70
2018,07,14,12,09,20.70
2018,07,14,12,10,20.90
2018,07,14,12,11,20.90
2018,07,14,12,12,20.90
2018,07,14,12,13,20.90
2018,07,14,12,14,20.80
2018,07,14,12,15,20.80
2018,07,14,12,16,20.70
2018,07,14,12,17,20.70
2018,07,14,12,18,20.60
2018,07,14,12,19,20.60
2018,07,14,12,20,20.60
2018,07,14,12,21,20.60
2018,07,14,12,22,20.70
2018,07,14,12,23,20.70
2018,07,14,12,24,20.70
2018,07,14,12,25,20.60
2018,07,14,12,26,20.60
2018,07,14,12,27,20.50
2018,07,14,12,28,20.50
2018,07,14,12,29,20.50
2018,07,14,12,30,20.50
2018,07,14,12,31,20.40
2018,07,14,12,32,20.30
2018,07,14,12,33,20.30
2018,07,14,12,34,20.40
2018,07,14,12,35,20.50
2018,07,14,12,36,20.60
2018,07,14,12,37,20.80
2018,07,14,12,38,20.80
2018,07,14,12,39,20.80
2018,07,14,12,40,20.80
2018,07,14,12,41,20.70
2018,07,14,12,42,20.80
2018,07,14,12,43,20.90
2018,07,14,12,44,21.00
2018,07,14,12,45,21.10
2018,07,14,12,46,21.30
2018,07,14,12,47,21.30
2018,07,14,12,48,21.40
2018,07,14,12,49,21.60
2018,07,14,12,50,21.70
2018,07,14,12,51,21.90
2018,07,14,12,52,22.10
2018,07,14,12,53,22.30
2018,07,14,12,54,22.50
2018,07,14,12,55,22.60
2018,07,14,12,56,22.60
2018,07,14,12,57,22.70
2018,07,14,12,58,22.70
2018,07,14,12,59,22.60
2018,07,14,13,00,22.50
2018,07,14,13,01,22.40
2018,07,14,13,02,22.40
2018,07,14,13,03,22.40
2018,07,14,13,04,22.40
2018,07,14,13,05,22.40
2018,07,14,13,06,22.50
2018,07,14,13,07,22.50
2018,07,14,13,08,22.60
2018,07,14,13,09,22.70
2018,07,14,13,10,22.60
2018,07,14,13,11,22.60
2018,07,14,13,12,22.60
2018,07,14,13,13,22.70
2018,07,14,13,14,22.80
2018,07,14,13,15,22.90
2018,07,14,13,16,22.90
2018,07,14,13,17,22.80
2018,07,14,13,18,22.70
2018,07,14,13,19,22.60
2018,07,14,13,20,22.50
2018,07,14,13,21,22.30
2018,07,14,13,22,22.30
2018,07,14,13,23,22.40
2018,07,14,13,24,22.60
2018,07,14,13,25,22.70
2018,07,14,13,26,22.80
2018,07,14,13,27,22.80
2018,07,14,13,28,22.70
2018,07,14,13,29,22.50
2018,07,14,13,30,22.50
2018,07,14,13,31,22.50
2018,07,14,13,32,22.50
2018,07,14,13,33,22.30
2018,07,14,13,34,22.30
2018,07,14,13,35,22.30
2018,07,14,13,36,22.30
2018,07,14,13,37,22.30
2018,07,14,13,38,22.30
2018,07,14,13,39,22.30
2018,07,14,13,40,22.40
2018,07,14,13,41,22.60
2018,07,14,13,42,22.80
2018,07,14,13,43,22.90
2018,07,14,13,44,23.00
2018,07,14,13,45,23.10
2018,07,14,13,46,23.30
2018,07,14,13,47,23.30
2018,07,14,13,48,23.30
2018,07,14,13,49,23.20
2018,07,14,13,50,23.10
2018,07,14,13,51,23.00
2018,07,14,13,52,22.90
2018,07,14,13,53,22.80
2018,07,14,13,54,22.80
2018,07,14,13,55,22.80
2018,07,14,13,56,22.80
2018,07,14,13,57,22.80
2018,07,14,13,58,22.90
2018,07,14,13,59,23.00
2018,07,14,14,00,23.10
2018,07,14,14,01,23.20
2018,07,14,14,02,23.20
2018,07,14,14,03,23.30
2018,07,14,14,04,23.30
2018,07,14,14,05,23.30
2018,07,14,14,06,23.30
2018,07,14,14,07,23.30
2018,07,14,14,08,23.30
2018,07,14,14,09,23.30
2018,07,14,14,10,23.30
2018,07,14,14,11,23.40
2018,07,14,14,12,23.50
2018,07,14,14,13,23.70
2018,07,14,14,14,23.80
2018,07,14,14,15,23.80
2018,07,14,14,16,23.90
2018,07,14,14,17,24.00
2018,07,14,14,18,24.10
2018,07,14,14,19,24.20
2018,07,14,14,20,24.20
2018,07,14,14,21,24.20
2018,07,14,14,22,24.00
2018,07,14,14,23,23.80
2018,07,14,14,24,23.70
2018,07,14,14,25,23.70
2018,07,14,14,26,23.70
2018,07,14,14,27,23.70
2018,07,14,14,28,23.70
2018,07,14,14,29,23.80
2018,07,14,14,30,23.80
2018,07,14,14,31,24.00
2018,07,14,14,32,24.10
2018,07,14,14,33,24.10
2018,07,14,14,34,24.20
2018,07,14,14,35,24.20
2018,07,14,14,36,24.40
2018,07,14,14,37,24.40
2018,07,14,14,38,24.40
2018,07,14,14,39,24.30
2018,07,14,14,40,24.20
2018,07,14,14,41,24.20
2018,07,14,14,42,24.30
2018,07,14,14,43,24.30
2018,07,14,14,44,24.40
2018,07,14,14,45,24.30
2018,07,14,14,46,24.20
2018,07,14,14,47,24.00
2018,07,14,14,48,23.80
2018,07,14,14,49,23.60
2018,07,14,14,50,23.50
2018,07,14,14,51,23.30
2018,07,14,14,52,23.40
2018,07,14,14,53,23.50
2018,07,14,14,54,23.60
2018,07,14,14,55,23.50
2018,07,14,14,56,23.40
2018,07,14,14,57,23.30
2018,07,14,14,58,23.40
2018,07,14,14,59,23.50
2018,07,14,15,00,23.70
2018,07,14,15,01,23.70
2018,07,14,15,02,23.70
2018,07,14,15,03,23.80
2018,07,14,15,04,23.90
2018,07,14,15,05,23.90
2018,07,14,15,06,23.90
2018,07,14,15,07,24.00
2018,07,14,15,08,24.10
2018,07,14,15,09,24.20
2018,07,14,15,10,24.30
2018,07,14,15,11,24.30
2018,07,14,15,12,24.20
2018,07,14,15,13,24.30
2018,07,14,15,14,24.30
2018,07,14,15,15,24.30
2018,07,14,15,16,24.40
2018,07,14,15,17,24.60
2018,07,14,15,18,24.60
2018,07,14,15,19,24.80
2018,07,14,15,20,24.70
2018,07,14,15,21,24.70
2018,07,14,15,22,24.60
2018,07,14,15,23,24.50
2018,07,14,15,24,24.40
2018,07,14,15,25,24.30
2018,07,14,15,26,24.20
2018,07,14,15,27,24.10
2018,07,14,15,28,24.20
2018,07,14,15,29,24.20
2018,07,14,15,30,24.10
2018,07,14,15,31,24.10
2018,07,14,15,32,24.00
2018,07,14,15,33,23.90
2018,07,14,15,34,23.80
2018,07,14,15,35,23.70
2018,07,14,15,36,23.70
2018,07,14,15,37,23.60
2018,07,14,15,38,23.50
2018,07,14,15,39,23.40
2018,07,14,15,40,23.30
2018,07,14,15,41,23.30
2018,07,14,15,42,23.20
2018,07,14,15,43,23.20
2018,07,14,15,44,23.20
2018,07,14,15,45,23.40
2018,07,14,15,46,23.60
2018,07,14,15,47,23.70
2018,07,14,15,48,23.70
2018,07,14,15,49,23.70
2018,07,14,15,50,23.80
2018,07,14,15,51,24.00
2018,07,14,15,52,24.10
2018,07,14,15,53,24.20
2018,07,14,15,54,24.30
2018,07,14,15,55,24.40
2018,07,14,15,56,24.50
2018,07,14,15,57,24.60
2018,07,14,15,58,24.70
2018,07,14,15,59,24.80
2018,07,14,16,00,24.80
2018,07,14,16,01,24.80
2018,07,14,16,02,24.90
2018,07,14,16,03,25.10
2018,07,14,16,04,25.20
2018,07,14,16,05,25.30
2018,07,14,16,06,25.40
2018,07,14,16,07,25.50
2018,07,14,16,08,25.40
2018,07,14,16,09,25.40
2018,07,14,16,10,25.40
2018,07,14,16,11,25.40
2018,07,14,16,12,25.40
2018,07,14,16,13,25.50
2018,07,14,16,14,25.40
2018,07,14,16,15,25.40
2018,07,14,16,16,25.30
2018,07,14,16,17,25.20
2018,07,14,16,18,25.10
2018,07,14,16,19,25.10
2018,07,14,16,20,25.00
2018,07,14,16,21,24.80
2018,07,14,16,22,24.70
2018,07,14,16,23,24.70
2018,07,14,16,24,24.70
2018,07,14,16,25,24.70
2018,07,14,16,26,24.70
2018,07,14,16,27,24.70
2018,07,14,16,28,24.70
2018,07,14,16,29,24.70
2018,07,14,16,30,24.70
2018,07,14,16,31,24.70
2018,07,14,16,32,24.70
2018,07,14,16,33,24.60
2018,07,14,16,34,24.60
2018,07,14,16,35,24.60
2018,07,14,16,36,24.50
2018,07,14,16,37,24.60
2018,07,14,16,38,24.70
2018,07,14,16,39,24.80
2018,07,14,16,40,25.00
2018,07,14,16,41,25.20
2018,07,14,16,42,25.30
2018,07,14,16,43,25.30
2018,07,14,16,44,25.40
2018,07,14,16,45,25.40
2018,07,14,16,46,25.40
2018,07,14,16,47,25.40
2018,07,14,16,48,25.30
2018,07,14,16,49,25.20
2018,07,14,16,50,25.20
2018,07,14,16,51,25.20
2018,07,14,16,52,25.20
2018,07,14,16,53,25.10
2018,07,14,16,54,24.80
2018,07,14,16,55,24.70
2018,07,14,16,56,24.60
2018,07,14,16,57,24.50
2018,07,14,16,58,24.40
2018,07,14,16,59,24.20
2018,07,14,17,00,24.10
2018,07,14,17,01,24.10
2018,07,14,17,02,24.00
2018,07,14,17,03,23.80
2018,07,14,17,04,23.80
2018,07,14,17,05,23.90
2018,07,14,17,06,23.90
2018,07,14,17,07,24.10
2018,07,14,17,08,24.10
2018,07,14,17,09,24.20
2018,07,14,17,10,24.40
2018,07,14,17,11,24.40
2018,07,14,17,12,24.40
2018,07,14,17,13,24.50
2018,07,14,17,14,24.50
2018,07,14,17,15,24.40
2018,07,14,17,16,24.30
2018,07,14,17,17,24.30
2018,07,14,17,18,24.30
2018,07,14,17,19,24.30